Augusta Bush, GA

9:58 PM EDT on March 30, 2017 (GMT -0400)
Augusta Regional At Bush

Weather History for KAGS - August, 2013

Change the Weather History Date:

Monday, August 26, 2013

  Actual Average Record
Temperature  
Mean Temperature 71 °F 80 °F  
Max Temperature 85 °F 91 °F 100 °F (1959)
Min Temperature 57 °F 68 °F 56 °F (1952)
Degree Days  
Heating Degree Days 0 0  
Month to date heating degree days 0 0  
Since 1 June heating degree days 0 0  
Since 1 July heating degree days 0 0  
Cooling Degree Days 6 15  
Month to date cooling degree days 350 412  
Year to date cooling degree days 1408 1618  
Since 1 June cooling degree days 1199 1335  
Growing Degree Days 20 (Base 50)    
Moisture  
Dew Point 59 °F    
Average Humidity 69    
Maximum Humidity 100    
Minimum Humidity 37    
Precipitation  
Precipitation 0.00 in 0.13 in 2.57 in (1995)
Month to date precipitation 5.84 3.71  
Year to date precipitation 45.32 30.26  
Sea Level Pressure  
Sea Level Pressure 30.23 in    
Wind  
Wind Speed 2 mph (NNE)    
Max Wind Speed 12 mph    
Max Gust Speed 16 mph    
Visibility 10 miles    
Events      
T = Trace of Precipitation, MM = Missing Value Source: NWS Daily Summary

Daily Weather History Graph

Daily Weather History Graph

Search for Another Location

Airport or City:

Trip Planner

Search our weather history database for the weather conditions in past years. The results will help you decide how hot, cold, wet, or windy it might be!

Date:

Astronomy

Aug. 26, 2013 Rise Set
Actual Time 6:58 AM EDT 8:00 PM EDT
Civil Twilight 6:32 AM EDT 8:25 PM EDT
Nautical Twilight 6:02 AM EDT 8:56 PM EDT
Astronomical Twilight 5:30 AM EDT 9:27 PM EDT
Moon 11:31 PM EDT (8/26) 12:37 PM EDT (8/26)
Length of Visible Light 13h 53m
Length of Day
13h 02m
Waning Gibbous, 67% of the Moon is Illuminated
Aug 26
Waning Gibbous
Aug 28
Last Quarter
Sep 5
New
Sep 12
First Quarter
Sep 19
Full

Hourly Weather History & Observations

Time (EDT) Temp. Heat Index Dew Point Humidity Pressure Visibility Wind Dir Wind Speed Gust Speed Precip Events Conditions
12:53 AM 61.0 °F - 60.1 °F 97% 30.29 in 10.0 mi Calm Calm - N/A   Clear
1:53 AM 62.1 °F - 60.1 °F 93% 30.28 in 10.0 mi Calm Calm - N/A   Clear
2:53 AM 60.1 °F - 59.0 °F 96% 30.28 in 10.0 mi Calm Calm - N/A   Clear
3:53 AM 60.1 °F - 59.0 °F 96% 30.27 in 10.0 mi Calm Calm - 0.01 in   Clear
4:53 AM 60.1 °F - 59.0 °F 96% 30.26 in 10.0 mi Calm Calm - N/A   Mostly Cloudy
5:53 AM 59.0 °F - 57.0 °F 93% 30.26 in 10.0 mi Calm Calm - N/A   Clear
6:53 AM 57.9 °F - 57.0 °F 97% 30.26 in 10.0 mi Calm Calm - N/A   Clear
7:53 AM 61.0 °F - 59.0 °F 93% 30.27 in 10.0 mi NNW 3.5 mph - N/A   Clear
8:53 AM 66.0 °F - 61.0 °F 84% 30.28 in 10.0 mi Variable 3.5 mph - N/A   Clear
9:53 AM 71.1 °F - 62.1 °F 73% 30.29 in 10.0 mi Calm Calm - N/A   Clear
10:53 AM 77.0 °F - 59.0 °F 54% 30.29 in 10.0 mi ENE 10.4 mph - N/A   Clear
11:53 AM 79.0 °F - 57.9 °F 48% 30.28 in 10.0 mi Calm Calm - N/A   Clear
12:53 PM 81.0 °F 81.3 °F 59.0 °F 47% 30.27 in 10.0 mi NE 6.9 mph - N/A   Clear
1:53 PM 81.0 °F 81.3 °F 59.0 °F 47% 30.25 in 10.0 mi Variable 4.6 mph - N/A   Partly Cloudy
2:53 PM 82.0 °F 82.1 °F 59.0 °F 45% 30.21 in 10.0 mi ENE 4.6 mph - N/A   Clear
3:53 PM 82.9 °F 82.8 °F 59.0 °F 44% 30.18 in 10.0 mi Variable 4.6 mph - N/A   Clear
4:53 PM 84.0 °F 83.3 °F 57.0 °F 40% 30.17 in 10.0 mi Variable 3.5 mph - N/A   Clear
5:53 PM 82.9 °F 81.9 °F 54.0 °F 37% 30.15 in 10.0 mi Calm Calm - N/A   Clear
6:53 PM 82.9 °F 81.9 °F 54.0 °F 37% 30.14 in 10.0 mi Calm Calm - N/A   Clear
7:53 PM 75.9 °F - 59.0 °F 56% 30.14 in 10.0 mi NNW 4.6 mph - N/A   Clear
8:53 PM 66.9 °F - 63.0 °F 87% 30.14 in 10.0 mi Calm Calm - N/A   Clear
9:53 PM 64.0 °F - 62.1 °F 93% 30.15 in 10.0 mi Calm Calm - N/A   Clear
10:53 PM 63.0 °F - 61.0 °F 93% 30.16 in 10.0 mi Calm Calm - N/A   Clear
11:53 PM 62.1 °F - 60.1 °F 93% 30.16 in 10.0 mi Calm Calm - N/A   Clear